| time (UTC) | temp C | wind direction | speed KPH | gust KPH | rain 1hr cm | rain 24hr cm | rain mn cm | humidity % | barometer mb |
| 20260508071817 | 15 | 130 | 14.5 | 0.0 | 0.00 | 0.00 | 0.00 | 82 | 1017.0 |
| 20260508070318 | 15 | 130 | 14.5 | 0.0 | 0.00 | 0.00 | 0.00 | 82 | 1017.0 |
| 20260508064818 | 15 | 120 | 17.7 | 0.0 | 0.00 | 0.00 | 0.00 | 77 | 1017.0 |
| 20260508063317 | 15 | 120 | 17.7 | 0.0 | 0.00 | 0.00 | 0.00 | 77 | 1017.0 |
| 20260508061814 | 13 | 130 | 11.3 | 0.0 | 0.00 | 0.00 | 0.00 | 88 | 1017.0 |
| 20260508060317 | 13 | 130 | 11.3 | 0.0 | 0.00 | 0.00 | 0.00 | 88 | 1017.0 |
| 20260508054815 | 12 | 120 | 11.3 | 0.0 | 0.00 | 0.00 | 0.00 | 88 | 1017.0 |
| 20260508053317 | 12 | 120 | 11.3 | 0.0 | 0.00 | 0.00 | 0.00 | 88 | 1017.0 |
| 20260508051818 | 11 | 140 | 9.7 | 0.0 | 0.00 | 0.00 | 0.00 | 100 | 1017.0 |
| 20260508050318 | 11 | 140 | 9.7 | 0.0 | 0.00 | 0.00 | 0.00 | 100 | 1017.0 |
| 20260508044817 | 11 | 150 | 11.3 | 0.0 | 0.00 | 0.00 | 0.00 | 100 | 1017.0 |
| 20260508043317 | 11 | 150 | 11.3 | 0.0 | 0.00 | 0.00 | 0.00 | 100 | 1017.0 |
| 20260508041815 | 11 | 120 | 8.0 | 0.0 | 0.00 | 0.00 | 0.00 | 94 | 1017.0 |
| 20260508040318 | 11 | 120 | 8.0 | 0.0 | 0.00 | 0.00 | 0.00 | 94 | 1017.0 |
| 20260508034815 | 10 | 140 | 11.3 | 0.0 | 0.00 | 0.00 | 0.00 | 100 | 1017.0 |
| 20260508033317 | 10 | 140 | 11.3 | 0.0 | 0.00 | 0.00 | 0.00 | 100 | 1017.0 |
| 20260508031817 | 10 | 140 | 9.7 | 0.0 | 0.00 | 0.00 | 0.00 | 100 | 1017.0 |
| 20260508030317 | 10 | 140 | 9.7 | 0.0 | 0.00 | 0.00 | 0.00 | 100 | 1017.0 |
| 20260508024818 | 10 | 160 | 11.3 | 0.0 | 0.00 | 0.00 | 0.00 | 100 | 1017.0 |
| 20260508023318 | 10 | 160 | 11.3 | 0.0 | 0.00 | 0.00 | 0.00 | 100 | 1017.0 |
| 20260508021818 | 10 | 150 | 11.3 | 0.0 | 0.00 | 0.00 | 0.00 | 100 | 1017.0 |
| 20260508020317 | 10 | 150 | 11.3 | 0.0 | 0.00 | 0.00 | 0.00 | 100 | 1017.0 |
| 20260508014817 | 10 | 170 | 4.8 | 0.0 | 0.00 | 0.00 | 0.00 | 100 | 1016.0 |
| 20260508013317 | 10 | 170 | 4.8 | 0.0 | 0.00 | 0.00 | 0.00 | 100 | 1016.0 |
| 20260508011817 | 8 | 130 | 9.7 | 0.0 | 0.00 | 0.00 | 0.00 | 94 | 1016.0 |
| 20260508010317 | 8 | 130 | 9.7 | 0.0 | 0.00 | 0.00 | 0.00 | 94 | 1016.0 |
| 20260508004817 | 10 | 120 | 11.3 | 0.0 | 0.00 | 0.00 | 0.00 | 94 | 1016.0 |
| 20260508003317 | 10 | 120 | 11.3 | 0.0 | 0.00 | 0.00 | 0.00 | 94 | 1016.0 |
| 20260508001816 | 10 | 150 | 9.7 | 0.0 | 0.00 | 0.00 | 0.00 | 94 | 1017.0 |
| 20260508000319 | 10 | 150 | 9.7 | 0.0 | 0.00 | 0.00 | 0.00 | 94 | 1017.0 |
| 20260507234818 | 10 | 140 | 12.9 | 0.0 | 0.00 | 0.00 | 0.00 | 100 | 1017.0 |
| 20260507233317 | 10 | 140 | 12.9 | 0.0 | 0.00 | 0.00 | 0.00 | 100 | 1017.0 |
| 20260507231817 | 11 | 140 | 11.3 | 0.0 | 0.00 | 0.00 | 0.00 | 94 | 1017.0 |
| 20260507230317 | 11 | 140 | 11.3 | 0.0 | 0.00 | 0.00 | 0.00 | 94 | 1017.0 |
| 20260507224817 | 11 | 150 | 12.9 | 0.0 | 0.00 | 0.00 | 0.00 | 94 | 1018.0 |
| 20260507223434 | 11 | 150 | 12.9 | 0.0 | 0.00 | 0.00 | 0.00 | 94 | 1018.0 |
| 20260507221817 | 10 | 160 | 9.7 | 0.0 | 0.00 | 0.00 | 0.00 | 100 | 1018.0 |
| 20260507220316 | 10 | 160 | 9.7 | 0.0 | 0.00 | 0.00 | 0.00 | 100 | 1018.0 |
| 20260507214817 | 10 | 150 | 12.9 | 0.0 | 0.00 | 0.00 | 0.00 | 100 | 1017.0 |
| 20260507213319 | 10 | 150 | 12.9 | 0.0 | 0.00 | 0.00 | 0.00 | 100 | 1017.0 |
| 20260507211817 | 11 | 150 | 14.5 | 0.0 | 0.00 | 0.00 | 0.00 | 94 | 1017.0 |
| 20260507210317 | 11 | 150 | 14.5 | 0.0 | 0.00 | 0.00 | 0.00 | 94 | 1017.0 |
| 20260507204817 | 11 | 160 | 11.3 | 0.0 | 0.00 | 0.00 | 0.00 | 94 | 1017.0 |
| 20260507203317 | 11 | 160 | 11.3 | 0.0 | 0.00 | 0.00 | 0.00 | 94 | 1017.0 |
| 20260507201817 | 10 | 150 | 11.3 | 0.0 | 0.00 | 0.00 | 0.00 | 100 | 1018.0 |
| 20260507200318 | 10 | 150 | 11.3 | 0.0 | 0.00 | 0.00 | 0.00 | 100 | 1018.0 |
| 20260507194823 | 10 | 140 | 9.7 | 0.0 | 0.00 | 0.00 | 0.00 | 100 | 1018.0 |
| 20260507193317 | 10 | 140 | 9.7 | 0.0 | 0.00 | 0.00 | 0.00 | 100 | 1018.0 |
| 20260507191817 | 10 | 130 | 12.9 | 0.0 | 0.00 | 0.00 | 0.00 | 100 | 1017.0 |
| 20260507190318 | 10 | 130 | 12.9 | 0.0 | 0.00 | 0.00 | 0.00 | 100 | 1017.0 |
| 20260507184819 | 8 | 130 | 12.9 | 0.0 | 0.00 | 0.00 | 0.00 | 100 | 1017.0 |
| 20260507183317 | 8 | 130 | 12.9 | 0.0 | 0.00 | 0.00 | 0.00 | 100 | 1017.0 |
| 20260507181817 | 10 | 120 | 14.5 | 0.0 | 0.00 | 0.00 | 0.00 | 100 | 1017.0 |
| 20260507180317 | 10 | 120 | 14.5 | 0.0 | 0.00 | 0.00 | 0.00 | 100 | 1017.0 |
| 20260507174817 | 10 | 130 | 16.1 | 0.0 | 0.00 | 0.00 | 0.00 | 100 | 1017.0 |
| 20260507173318 | 10 | 130 | 16.1 | 0.0 | 0.00 | 0.00 | 0.00 | 100 | 1017.0 |
| 20260507171818 | 12 | 130 | 17.7 | 0.0 | 0.00 | 0.00 | 0.00 | 88 | 1017.0 |
| 20260507170317 | 12 | 130 | 17.7 | 0.0 | 0.00 | 0.00 | 0.00 | 88 | 1017.0 |
| 20260507164818 | 12 | 130 | 20.9 | 0.0 | 0.00 | 0.00 | 0.00 | 88 | 1017.0 |
| 20260507163317 | 12 | 130 | 20.9 | 0.0 | 0.00 | 0.00 | 0.00 | 88 | 1017.0 |
| 20260507161817 | 13 | 130 | 22.5 | 0.0 | 0.00 | 0.00 | 0.00 | 77 | 1017.0 |
| 20260507160317 | 13 | 130 | 22.5 | 0.0 | 0.00 | 0.00 | 0.00 | 77 | 1017.0 |
| 20260507154817 | 13 | 130 | 20.9 | 0.0 | 0.00 | 0.00 | 0.00 | 72 | 1017.0 |
| 20260507153317 | 13 | 130 | 20.9 | 0.0 | 0.00 | 0.00 | 0.00 | 72 | 1017.0 |
| 20260507151817 | 13 | 130 | 22.5 | 0.0 | 0.00 | 0.00 | 0.00 | 77 | 1017.0 |
| 20260507150317 | 13 | 130 | 22.5 | 0.0 | 0.00 | 0.00 | 0.00 | 77 | 1017.0 |
| 20260507144817 | 15 | 140 | 22.5 | 0.0 | 0.00 | 0.00 | 0.00 | 72 | 1018.0 |
| 20260507143319 | 15 | 140 | 22.5 | 0.0 | 0.00 | 0.00 | 0.00 | 72 | 1018.0 |
| 20260507141817 | 15 | 130 | 24.1 | 0.0 | 0.00 | 0.00 | 0.00 | 77 | 1018.0 |
| 20260507140317 | 15 | 130 | 24.1 | 0.0 | 0.00 | 0.00 | 0.00 | 77 | 1018.0 |
| 20260507134819 | 16 | 130 | 24.1 | 0.0 | 0.00 | 0.00 | 0.00 | 72 | 1018.0 |
| 20260507133317 | 16 | 130 | 24.1 | 0.0 | 0.00 | 0.00 | 0.00 | 72 | 1018.0 |
| 20260507131814 | 16 | 120 | 27.4 | 0.0 | 0.00 | 0.00 | 0.00 | 68 | 1018.0 |
| 20260507130317 | 16 | 120 | 27.4 | 0.0 | 0.00 | 0.00 | 0.00 | 68 | 1018.0 |
| 20260507124817 | 16 | 130 | 25.7 | 0.0 | 0.00 | 0.00 | 0.00 | 72 | 1018.0 |
| 20260507123355 | 16 | 130 | 25.7 | 0.0 | 0.00 | 0.00 | 0.00 | 72 | 1018.0 |
| 20260507121817 | 16 | 130 | 25.7 | 0.0 | 0.00 | 0.00 | 0.00 | 72 | 1018.0 |
| 20260507120317 | 16 | 130 | 25.7 | 0.0 | 0.00 | 0.00 | 0.00 | 72 | 1018.0 |
| 20260507114817 | 16 | 120 | 27.4 | 0.0 | 0.00 | 0.00 | 0.00 | 72 | 1018.0 |
| 20260507113333 | 16 | 130 | 25.7 | 0.0 | 0.00 | 0.00 | 0.00 | 72 | 1018.0 |
| 20260507111817 | 16 | 130 | 25.7 | 0.0 | 0.00 | 0.00 | 0.00 | 72 | 1018.0 |
| 20260507110317 | 16 | 130 | 25.7 | 0.0 | 0.00 | 0.00 | 0.00 | 72 | 1018.0 |
| 20260507104816 | 16 | 130 | 22.5 | 0.0 | 0.00 | 0.00 | 0.00 | 72 | 1018.0 |
| 20260507103317 | 16 | 130 | 22.5 | 0.0 | 0.00 | 0.00 | 0.00 | 72 | 1018.0 |
| 20260507101817 | 17 | 130 | 24.1 | 0.0 | 0.00 | 0.00 | 0.00 | 68 | 1018.0 |
| 20260507100317 | 17 | 130 | 24.1 | 0.0 | 0.00 | 0.00 | 0.00 | 68 | 1018.0 |
| 20260507094817 | 17 | 130 | 24.1 | 0.0 | 0.00 | 0.00 | 0.00 | 68 | 1018.0 |
| 20260507093317 | 17 | 130 | 24.1 | 0.0 | 0.00 | 0.00 | 0.00 | 68 | 1018.0 |
| 20260507091818 | 16 | 130 | 22.5 | 0.0 | 0.00 | 0.00 | 0.00 | 72 | 1018.0 |
| 20260507090317 | 16 | 130 | 22.5 | 0.0 | 0.00 | 0.00 | 0.00 | 72 | 1018.0 |
| 20260507084817 | 16 | 120 | 20.9 | 0.0 | 0.00 | 0.00 | 0.00 | 68 | 1018.0 |
| 20260507083317 | 16 | 120 | 20.9 | 0.0 | 0.00 | 0.00 | 0.00 | 68 | 1018.0 |
| 20260507081817 | 17 | 140 | 20.9 | 0.0 | 0.00 | 0.00 | 0.00 | 64 | 1018.0 |
| 20260507080318 | 17 | 140 | 20.9 | 0.0 | 0.00 | 0.00 | 0.00 | 64 | 1018.0 |
| 20260507074818 | 16 | 150 | 14.5 | 0.0 | 0.00 | 0.00 | 0.00 | 72 | 1018.0 |
| 20260507073317 | 16 | 150 | 14.5 | 0.0 | 0.00 | 0.00 | 0.00 | 72 | 1018.0 |